EA2DUR Weather Reports


time (UTC)temp
F
wind
direction
speed
knots
gust
knots
rain 1hr
in
rain 24hr
in
rain mn
in
humidity
%
barometer
mb
20260510201503 53 213 0.0 3.5 0.00 0.00 0.00 77 943.1
20260510200012 54 300 0.9 3.5 0.00 0.00 0.00 72 942.8
20260510194502 55 285 1.7 4.3 0.00 0.00 0.00 67 942.7
20260510193007 57 299 0.9 3.5 0.00 0.00 0.00 64 942.6
20260510191502 57 265 1.7 3.5 0.00 0.00 0.00 61 942.5
20260510190004 58 291 0.9 5.2 0.00 0.00 0.00 61 942.4
20260510184559 58 301 2.6 7.0 0.00 0.00 0.00 61 942.1
20260510183103 58 314 3.5 6.1 0.00 0.00 0.00 60 941.9
20260510181559 59 313 5.2 12.2 0.00 0.00 0.00 60 941.9
20260510180059 60 328 8.7 16.5 0.00 0.00 0.00 60 941.7
20260510174600 61 263 12.2 20.9 0.00 0.00 0.00 57 941.2
20260510173106 62 271 12.2 17.4 0.00 0.00 0.00 57 941.2
20260510171559 62 256 6.1 8.7 0.00 0.00 0.00 63 941.0
20260510170107 61 220 4.3 7.8 0.00 0.00 0.00 64 941.1
20260510164556 61 188 3.5 8.7 0.00 0.00 0.00 64 941.0
20260510163058 62 215 5.2 14.8 0.00 0.00 0.00 62 941.0
20260510161555 61 205 2.6 12.2 0.00 0.00 0.00 64 941.0
20260510160055 62 227 7.0 14.8 0.00 0.00 0.00 63 941.0
20260510154554 62 205 5.2 13.0 0.00 0.00 0.00 64 941.1
20260510153052 61 161 5.2 12.2 0.00 0.00 0.00 65 941.2
20260510151552 60 200 4.3 13.9 0.00 0.00 0.00 68 941.5
20260510150053 59 168 3.5 10.4 0.00 0.00 0.00 70 941.6
20260510144552 58 229 5.2 11.3 0.00 0.00 0.00 74 942.0
20260510143050 57 244 3.5 13.0 0.00 0.00 0.00 77 941.6
20260510141559 57 205 4.3 11.3 0.00 0.00 0.00 78 942.1
20260510140053 56 244 4.3 7.0 0.00 0.00 0.00 79 942.8
20260510134555 56 320 1.7 4.3 0.00 0.00 0.00 83 942.6
20260510133102 55 269 4.3 10.4 0.00 0.00 0.00 85 942.7
20260510131600 54 283 11.3 15.6 0.00 0.00 0.00 87 943.0
20260510130047 52 267 10.4 21.7 0.00 0.00 0.00 87 943.1
20260510124546 55 254 14.8 27.8 0.00 0.00 0.00 77 942.9
20260510123056 63 184 3.5 9.6 0.00 0.00 0.00 56 941.3
20260510121542 64 230 3.5 6.1 0.00 0.00 0.00 55 941.2
20260510120042 64 237 2.6 8.7 0.00 0.00 0.00 53 941.5
20260510114540 64 241 2.6 9.6 0.00 0.00 0.00 53 941.7
20260510113043 64 196 6.1 10.4 0.00 0.00 0.00 50 941.8
20260510111539 64 242 3.5 10.4 0.00 0.00 0.00 53 941.9
20260510110039 63 188 2.6 12.2 0.00 0.00 0.00 55 942.3
20260510104531 62 134 3.5 9.6 0.00 0.00 0.00 59 942.5
20260510103028 61 202 4.3 13.0 0.00 0.00 0.00 61 942.6
20260510101522 60 211 3.5 11.3 0.00 0.00 0.00 64 942.9
20260510100021 60 254 3.5 8.7 0.00 0.00 0.00 64 943.1
20260510094518 60 232 1.7 12.2 0.00 0.00 0.00 65 943.0
20260510093016 59 228 4.3 14.8 0.00 0.00 0.00 66 943.0
20260510091514 59 206 6.1 16.5 0.00 0.00 0.00 66 943.1
20260510090011 59 222 8.7 15.6 0.00 0.00 0.00 68 943.2
20260510084507 58 221 4.3 13.9 0.00 0.00 0.00 70 943.2
20260510083003 58 239 7.0 12.2 0.00 0.00 0.00 69 943.3
20260510081602 57 182 7.0 13.0 0.00 0.00 0.00 69 943.3
20260510080055 57 157 7.0 13.9 0.00 0.00 0.00 71 943.3
20260510074552 56 229 7.8 17.4 0.00 0.00 0.00 71 943.3
20260510073105 56 215 8.7 14.8 0.00 0.00 0.00 72 943.2
20260510071556 55 143 8.7 19.1 0.00 0.00 0.00 74 942.9
20260510070044 54 234 6.1 15.6 0.00 0.00 0.00 76 942.6
20260510064548 54 175 8.7 13.0 0.00 0.00 0.00 77 942.5
20260510063039 53 229 7.0 12.2 0.00 0.00 0.00 79 942.3
20260510061530 53 195 7.0 13.9 0.00 0.00 0.00 79 942.1
20260510060026 53 217 6.1 14.8 0.00 0.00 0.00 80 942.1
20260510054524 52 162 3.5 11.3 0.00 0.00 0.00 82 942.2
20260510053020 52 227 4.3 10.4 0.00 0.00 0.00 82 942.1
20260510051517 52 190 4.3 10.4 0.00 0.00 0.00 83 941.8
20260510050014 52 190 2.6 9.6 0.00 0.00 0.00 82 941.7
20260510044515 52 135 3.5 8.7 0.00 0.00 0.00 82 941.7
20260510043012 52 170 3.5 10.4 0.00 0.00 0.00 83 941.7
20260510041511 52 192 4.3 7.8 0.00 0.00 0.00 85 941.7
20260510040012 52 173 2.6 6.1 0.00 0.00 0.00 85 941.7
20260510034507 53 171 1.7 7.8 0.00 0.00 0.00 84 941.9
20260510033005 53 146 2.6 5.2 0.00 0.00 0.00 83 941.8
20260510031506 54 178 3.5 7.0 0.00 0.00 0.00 83 941.9
20260510030005 54 171 4.3 10.4 0.00 0.00 0.00 83 941.6
20260510024600 54 184 3.5 9.6 0.00 0.00 0.00 84 941.6
20260510023059 54 155 4.3 11.3 0.00 0.00 0.00 87 941.6
20260510021601 54 216 4.3 10.4 0.00 0.00 0.00 88 941.5
20260510020056 54 151 4.3 7.0 0.00 0.00 0.00 88 941.5
20260510014606 55 211 1.7 5.2 0.00 0.00 0.00 88 941.5
20260510013052 55 181 2.6 6.1 0.00 0.00 0.00 87 941.2
20260510011549 55 237 4.3 7.0 0.00 0.00 0.00 87 941.7
20260510010048 56 173 3.5 10.4 0.00 0.00 0.00 87 941.8
20260510004547 56 170 4.3 13.0 0.00 0.00 0.00 85 941.9
20260510003048 56 128 2.6 7.8 0.00 0.00 0.00 85 941.8
20260510001549 56 177 2.6 7.0 0.00 0.00 0.00 85 942.0
20260510000042 56 160 5.2 11.3 0.00 0.00 0.00 86 942.2
20260509234541 56 197 5.2 8.7 0.00 0.00 0.00 87 942.2
20260509233039 56 284 1.7 6.1 0.00 0.00 0.00 87 942.0
20260509231538 56 186 3.5 7.8 0.00 0.00 0.00 87 941.7
20260509230036 56 197 2.6 8.7 0.00 0.00 0.00 86 941.9
20260509224545 56 128 2.6 9.6 0.00 0.00 0.00 86 942.1
20260509223036 56 155 2.6 5.2 0.00 0.00 0.00 85 942.2
20260509221535 56 172 2.6 7.8 0.00 0.00 0.00 84 942.3
20260509220029 57 158 7.0 13.9 0.00 0.00 0.00 83 942.2
20260509214529 57 165 4.3 8.7 0.00 0.00 0.00 82 941.9
20260509213029 57 192 0.9 6.1 0.00 0.00 0.00 82 941.9
20260509211527 57 184 2.6 11.3 0.00 0.00 0.00 83 941.7
20260509210031 57 144 7.8 16.5 0.00 0.00 0.00 82 941.5
20260509204526 57 137 7.0 15.6 0.00 0.00 0.00 80 941.6
20260509203026 58 127 6.1 12.2 0.00 0.00 0.00 78 941.6